This demonstration page uses our WeatherBlox Daily Observations layout. Learn more.

Left ArrowRight Arrow

38.80484, -77.04692

Hourly Observations for January 26, 2022

Temp ( °F °C ) Dew Point ( °F °C ) Humidity (%) Winds ( mph kmh ) Pressure ( in mb ) Visibility ( mi km ) Precip ( " mm )
12:52 am 00:52 Cloudy 29 -1.7 9 -12.8 43 43 N 18 30 30.25 1024 10 16 0.00 0.00
1:52 am 01:52 Partly Cloudy 28 -2.2 8 -13.3 43 43 N 15 24 30.27 1025 10 16 0.00 0.00
2:52 am 02:52 Mostly Clear 27 -2.8 7 -13.9 43 43 N 13 20 30.29 1026 10 16 0.00 0.00
3:52 am 03:52 Mostly Clear 26 -3.3 8 -13.3 46 46 NNE 13 20 30.29 1026 10 16 0.00 0.00
4:52 am 04:52 Mostly Clear 25 -3.9 8 -13.3 48 48 NNE 10 17 30.31 1026 10 16 0.00 0.00
5:52 am 05:52 Mostly Clear 24 -4.4 9 -12.8 52 52 NNE 7 11 30.33 1027 10 16 0.00 0.00
6:52 am 06:52 Mostly Clear 24 -4.4 7 -13.9 48 48 NE 8 13 30.36 1028 10 16 0.00 0.00
7:52 am 07:52 Mostly Sunny 25 -3.9 7 -13.9 46 46 NE 7 11 30.39 1029 10 16 0.00 0.00
8:52 am 08:52 Mostly Sunny 28 -2.2 6 -14.4 39 39 NNE 7 11 30.41 1030 10 16 0.00 0.00
9:52 am 09:52 Mostly Sunny 30 -1.1 6 -14.4 36 36 N 9 15 30.42 1030 10 16 0.00 0.00
10:52 am 10:52 Mostly Sunny 31 -0.6 7 -13.9 36 36 NNW 16 26 30.42 1030 10 16 0.00 0.00
11:52 am 11:52 Mostly Sunny 32 0 7 -13.9 35 35 NW 13 20 30.40 1030 10 16 0.00 0.00
12:52 pm 12:52 Mostly Sunny 33 0.6 7 -13.9 33 33 N 14 22 30.38 1029 10 16 0.00 0.00
1:52 pm 13:52 Mostly Sunny 33 0.6 7 -13.9 33 33 N 10 17 30.37 1029 10 16 0.00 0.00
2:52 pm 14:52 Mostly Sunny 34 1.1 7 -13.9 32 32 NNW 5 7 30.37 1029 10 16 0.00 0.00
3:52 pm 15:52 Mostly Sunny 33 0.6 6 -14.4 32 32 N 14 22 30.38 1029 10 16 0.00 0.00
4:52 pm 16:52 Mostly Sunny 31 -0.6 6 -14.4 35 35 NNW 10 17 30.40 1029 10 16 0.00 0.00
5:52 pm 17:52 Clear 29 -1.7 6 -14.4 38 38 NNW 10 17 30.42 1030 10 16 0.00 0.00
6:52 pm 18:52 Clear 28 -2.2 7 -13.9 41 41 N 12 19 30.45 1031 10 16 0.00 0.00
7:52 pm 19:52 Clear 28 -2.2 6 -14.4 39 39 NNE 12 19 30.46 1031 10 16 0.00 0.00
8:52 pm 20:52 Clear 27 -2.8 6 -14.4 41 41 N 9 15 30.47 1032 10 16 0.00 0.00
9:52 pm 21:52 Clear 26 -3.3 7 -13.9 44 44 NE 8 13 30.48 1032 10 16 0.00 0.00
10:52 pm 22:52 Mostly Cloudy 25 -3.9 7 -13.9 46 46 NE 7 11 30.49 1033 10 16 0.00 0.00
11:52 pm 23:52 Mostly Cloudy 25 -3.9 8 -13.3 48 48 ENE 3 6 30.49 1033 10 16 0.00 0.00

Powered by AerisWeather